ECMWFFLT1_250_spd_021.txt.gz
Wind_Speed
27 28 27 27 27 27 27 27 28 28 29 30 30 31 32 34 35 36 37 39 40 43 46 49 52 53 53 53 55 54 48 44 42 43 42 41 40 40 38 39 41 40 40 39 40 41 42 41 42 44 45 45 46 48 48 47 47 46 44 42 40 41 42
27 27 27 27 27 27 28 28 28 28 29 30 31 32 33 35 37 38 39 39 39 41 43 46 48 51 53 54 55 56 54 50 47 46 46 44 43 44 42 41 42 42 42 42 41 41 44 46 45 45 47 47 48 49 49 49 50 49 49 46 43 42 44
27 27 27 27 28 28 28 29 29 29 29 30 32 33 34 35 36 38 39 39 39 40 41 43 45 48 50 53 54 56 56 56 53 50 50 51 48 46 46 45 43 44 45 44 43 43 45 48 48 48 48 48 49 50 49 49 50 51 53 53 50 47 47
29 29 29 29 29 29 29 30 30 31 31 31 32 33 34 35 35 37 38 39 39 40 41 42 43 45 47 49 52 54 55 57 57 54 53 55 54 51 50 48 45 45 46 46 46 46 47 49 50 50 50 50 51 51 49 48 49 50 52 54 55 54 52
32 32 32 32 32 31 31 31 32 32 33 33 33 34 35 35 36 37 38 39 39 40 41 42 43 44 45 46 48 51 53 55 56 57 56 56 58 56 55 54 51 48 48 48 48 48 49 50 51 50 50 51 53 53 51 50 51 51 51 52 54 55 55
37 36 36 36 36 35 35 34 34 34 35 35 35 35 36 36 37 38 39 39 40 40 41 42 43 44 44 45 46 48 50 52 54 56 58 58 59 59 59 58 57 55 52 50 50 50 50 51 53 53 51 52 54 55 54 53 54 54 53 54 54 55 56
41 40 39 39 39 39 39 38 37 37 37 37 37 37 37 37 38 39 39 40 41 41 42 43 44 44 44 44 45 46 47 50 52 54 57 59 60 61 62 62 61 59 57 54 52 52 51 50 53 56 54 53 54 55 55 55 56 56 56 57 57 58 58
45 44 43 43 43 43 43 42 41 40 39 39 39 39 39 39 39 39 40 41 41 42 43 44 45 46 46 45 45 46 46 47 50 52 54 57 59 60 62 63 64 63 62 59 56 54 54 52 51 54 55 55 56 56 56 57 58 58 58 59 60 59 58
48 48 47 47 47 46 46 46 45 44 43 42 42 42 42 42 41 41 41 41 42 43 44 45 46 47 47 47 46 46 46 46 47 49 52 54 56 58 60 63 64 65 66 66 62 59 57 56 54 54 54 55 56 57 58 58 59 60 60 60 60 60 60
49 50 50 50 50 49 49 48 48 47 47 46 45 45 45 45 44 44 43 43 43 43 44 45 46 47 48 48 48 47 47 47 47 48 49 51 53 55 58 60 62 65 66 68 68 66 62 60 59 58 56 56 56 56 57 59 60 60 62 63 62 62 62
51 51 51 51 51 51 51 51 50 50 50 49 49 48 48 48 47 47 47 46 45 45 45 45 46 47 48 49 50 50 49 49 48 48 49 49 51 53 55 57 60 62 65 67 68 69 68 66 64 63 61 60 59 58 57 59 61 61 62 62 63 63 64
52 53 53 52 51 51 51 51 52 53 53 53 52 52 51 50 50 49 49 49 49 48 47 47 47 47 49 50 51 51 51 51 50 50 50 50 51 52 53 55 57 59 62 65 67 69 70 70 69 68 66 65 64 63 60 58 60 62 63 64 64 64 65
52 53 53 53 52 50 50 51 52 53 55 56 56 55 54 54 53 52 52 52 52 52 51 50 49 49 49 50 51 52 53 53 53 53 53 53 53 53 54 54 55 56 58 61 63 65 67 69 70 70 69 68 68 67 66 63 60 60 62 65 66 66 66
53 53 53 53 52 50 50 51 51 52 54 56 57 57 57 57 56 56 55 55 54 54 54 54 53 52 52 51 52 53 53 54 54 54 54 55 55 56 56 56 56 57 57 58 59 61 62 63 65 67 68 68 68 68 69 69 67 63 61 62 65 66 66
56 56 55 55 54 52 51 52 52 53 54 54 57 58 58 59 59 59 59 58 58 58 57 57 57 57 56 55 54 54 54 55 55 56 56 56 56 57 58 59 59 59 59 58 59 59 60 60 60 61 63 65 66 67 69 71 72 71 67 64 64 66 66
60 59 59 58 57 55 55 55 54 55 54 54 56 58 59 59 60 60 61 61 61 61 61 60 60 59 59 59 58 58 57 56 56 57 57 57 57 58 59 60 60 61 61 61 60 60 61 61 61 61 61 62 63 65 67 69 71 73 73 70 67 65 66
62 62 61 61 60 58 57 57 59 60 59 57 57 58 59 60 61 62 62 63 63 63 63 63 62 62 62 62 62 61 61 60 59 59 59 59 59 59 60 60 61 62 62 63 62 62 62 62 62 62 62 63 63 63 65 66 68 70 73 74 73 69 67
61 62 61 61 61 62 61 59 60 63 64 63 60 59 60 62 63 63 63 64 64 64 64 65 65 65 65 64 64 64 64 64 63 63 62 62 61 61 61 62 62 63 63 63 64 64 64 64 64 64 64 64 64 64 65 66 66 67 69 72 74 74 72
59 60 61 59 59 63 65 62 61 63 65 67 66 64 63 63 63 64 66 66 66 65 65 66 67 67 67 67 67 67 67 66 66 66 66 65 65 64 64 64 64 64 64 64 65 65 66 66 67 67 66 66 65 65 66 66 67 67 68 69 71 73 74
58 58 59 59 59 61 63 63 62 64 66 68 69 68 66 66 65 64 66 67 68 68 68 68 68 69 69 70 69 69 69 69 69 69 69 69 69 69 68 67 67 67 67 67 67 67 67 67 67 68 68 69 69 68 68 68 68 68 68 69 70 71 73
58 58 59 59 59 60 60 60 61 62 63 67 69 68 68 68 66 65 66 67 67 68 69 70 70 71 71 72 71 71 71 72 72 72 72 72 72 72 72 72 71 71 70 70 69 69 69 68 68 69 69 69 70 71 71 71 70 70 70 70 70 71 72
60 60 60 60 60 60 60 59 57 57 59 64 67 67 67 68 67 67 69 70 69 67 68 69 71 73 74 74 73 73 73 74 74 74 75 75 75 75 75 75 75 75 74 73 73 73 72 71 71 70 70 70 70 71 72 73 73 73 73 73 73 73 73
63 63 62 62 62 62 62 61 60 61 63 65 66 66 65 65 66 67 69 71 71 69 69 69 71 73 75 76 76 75 75 76 76 76 77 78 78 78 78 78 78 78 78 78 77 77 76 75 74 74 73 73 72 72 73 73 74 75 75 75 75 75 75
67 66 66 65 65 66 66 65 65 66 67 66 66 66 65 64 66 67 68 70 70 68 68 70 73 75 76 77 77 77 78 78 78 78 79 79 80 80 81 81 81 81 81 81 80 80 80 79 78 78 77 76 75 75 75 75 76 76 77 77 77 78 78
70 70 69 69 69 69 69 69 69 69 68 67 67 67 66 66 68 67 68 69 70 68 67 69 74 76 76 77 77 78 79 79 80 81 82 82 83 83 83 83 83 84 84 84 83 82 82 82 82 81 81 81 80 79 78 78 78 78 78 79 79 80 81
72 72 72 72 72 72 72 72 72 72 72 71 70 69 69 69 69 69 68 68 69 70 69 70 74 76 75 76 76 77 78 78 79 82 83 84 85 86 86 86 85 85 85 85 85 85 85 85 85 84 84 84 83 83 83 82 82 82 82 81 81 82 83
74 74 75 75 74 75 75 75 75 75 74 74 73 72 71 71 70 70 70 69 70 70 68 71 76 76 75 75 75 76 76 75 77 80 82 83 86 87 88 88 88 87 87 87 87 87 87 88 87 87 86 86 86 86 86 86 86 86 86 86 85 85 86
75 75 76 76 76 76 77 77 77 77 77 76 76 74 74 73 73 71 71 71 71 69 69 73 76 76 75 75 75 75 75 75 77 79 80 82 84 86 88 89 89 89 89 90 90 89 90 90 90 89 88 88 89 89 90 90 90 90 90 90 89 88 89
76 76 77 77 78 78 78 78 78 78 78 77 77 76 75 75 75 73 71 72 71 69 71 75 76 75 75 75 75 76 76 76 78 80 81 82 83 84 86 86 87 88 90 91 91 91 93 94 93 91 91 91 91 92 92 93 93 94 94 93 92 92 92
78 78 78 78 79 79 79 79 79 79 79 78 78 78 77 77 77 74 72 72 72 71 73 74 74 74 74 74 75 76 77 78 79 80 81 82 83 83 83 84 86 88 89 90 91 91 94 95 95 94 93 93 94 94 95 96 96 96 96 96 96 96 96
80 80 80 79 80 80 80 80 80 80 80 79 79 79 78 78 78 76 73 73 73 74 75 74 73 73 73 73 75 77 78 79 80 81 82 82 82 82 83 84 85 87 87 88 89 90 92 93 94 94 95 95 96 97 98 99 99 98 98 98 99 99 100
81 81 81 81 81 81 81 81 82 81 81 81 81 80 79 79 79 77 76 74 74 75 75 74 73 73 73 74 75 77 78 80 81 81 81 81 81 82 83 84 84 85 85 86 87 88 89 90 91 92 93 94 95 97 99 101 101 101 101 101 101 102 102
82 82 82 82 81 81 82 82 82 82 82 82 82 81 81 80 79 78 77 76 75 75 75 74 74 74 74 75 76 77 79 80 80 80 80 81 81 82 83 84 83 83 84 85 86 86 86 87 88 89 89 90 91 93 96 98 100 102 104 104 105 105 105
82 82 82 81 81 81 81 81 81 81 81 81 81 82 81 80 79 79 78 77 76 76 75 75 75 75 75 76 78 79 79 79 79 79 80 80 81 82 82 83 83 82 83 83 83 83 84 85 85 86 86 87 88 89 92 94 96 99 101 103 105 106 107
81 81 81 81 81 80 80 80 80 79 79 79 79 79 79 78 78 78 78 77 76 76 76 76 76 76 77 77 79 79 79 79 80 80 80 80 80 81 82 82 81 80 80 80 80 80 81 82 83 83 84 85 86 86 87 89 91 94 96 99 101 103 105
78 78 78 78 78 77 77 77 76 75 75 76 75 75 75 75 75 75 75 75 75 75 75 75 76 76 76 77 78 78 79 80 81 81 80 80 80 80 81 81 79 78 77 76 76 77 77 79 80 81 82 82 82 83 84 85 87 88 90 92 94 96 98
73 73 73 73 72 73 73 72 71 71 72 71 70 71 71 70 70 71 71 71 71 72 72 73 74 74 74 74 76 77 78 79 79 80 79 79 79 80 79 78 77 75 74 74 74 74 75 76 77 78 78 78 78 78 80 81 81 82 82 84 85 87 90

ECMWFFLT1_250_spd_024.txt.gz
Wind_Speed
28 28 29 29 30 31 31 31 31 30 30 30 30 30 31 31 32 32 33 35 37 39 42 45 47 50 53 53 52 49 47 47 47 48 46 43 44 45 43 39 37 36 37 37 36 38 40 41 43 43 43 43 42 44 47 50 50 50 49 47 45 44 43
29 28 28 29 30 30 31 31 31 30 30 30 30 31 31 31 32 32 32 33 35 36 38 41 44 47 51 53 55 53 50 47 47 48 48 46 45 46 46 42 38 38 39 40 39 40 40 41 42 45 47 47 46 45 46 48 50 51 51 51 50 49 47
31 30 29 29 29 30 31 31 31 30 30 30 30 31 31 32 32 32 32 33 34 36 37 38 41 44 48 51 54 55 54 51 48 48 50 48 45 46 46 43 40 41 41 41 41 42 42 42 43 45 47 48 49 48 47 47 49 50 51 51 52 51 49
34 33 32 30 30 31 32 32 32 32 31 31 30 30 31 31 32 33 33 34 34 36 38 39 40 42 45 48 52 55 56 56 53 51 52 51 47 45 46 45 43 42 42 41 42 43 43 43 44 45 46 46 47 48 49 49 49 49 49 50 51 51 50
38 37 35 34 33 32 32 33 33 33 33 32 32 31 31 31 32 33 34 35 36 37 39 40 41 42 43 45 48 52 55 57 57 55 55 54 52 48 48 48 45 44 43 42 42 44 45 44 44 45 46 46 46 46 48 48 48 48 47 48 48 49 50
41 40 40 38 36 35 34 33 34 34 34 34 34 33 33 32 32 33 34 35 36 37 38 40 41 41 41 42 45 48 52 55 57 57 57 57 57 54 52 51 50 47 46 44 43 44 46 47 47 47 47 47 47 47 48 48 49 49 48 48 48 48 49
43 43 43 42 40 39 37 36 35 36 36 36 35 35 35 34 34 34 34 35 36 37 38 39 40 41 41 41 42 45 48 51 55 58 59 58 59 59 57 56 54 51 50 49 47 45 47 49 50 50 50 50 49 49 49 49 50 50 50 51 50 49 48
44 44 44 44 44 42 41 40 38 38 38 38 37 37 37 37 37 37 36 36 37 37 38 39 40 41 41 41 42 43 45 48 51 55 58 60 61 62 61 60 59 57 55 55 53 49 48 49 50 51 52 52 51 52 52 52 52 52 52 53 53 51 50
46 46 45 45 45 45 44 43 42 41 41 40 40 40 40 39 39 39 39 39 39 39 39 40 41 42 42 43 43 43 44 46 48 50 54 57 60 62 63 63 63 62 59 59 58 55 52 51 51 52 53 53 52 52 53 55 55 54 54 55 55 54 54
47 46 46 46 46 46 46 45 45 45 45 44 44 43 42 42 42 42 42 42 42 41 41 41 41 42 43 44 44 45 45 46 47 49 50 53 55 58 61 63 64 64 63 62 62 61 59 57 55 54 54 54 54 54 53 55 56 56 56 57 56 56 56
47 47 47 48 48 48 47 47 47 47 47 47 47 47 47 46 45 45 44 44 44 44 44 43 43 43 43 44 45 46 47 47 48 49 50 51 52 54 56 59 61 63 64 64 64 64 63 62 61 59 57 57 57 57 56 55 56 57 58 58 57 58 58
50 49 48 48 49 49 49 49 49 49 49 49 49 50 50 50 49 49 48 47 47 47 46 46 46 45 45 45 45 46 47 48 49 50 52 53 53 54 54 56 58 59 61 63 64 65 66 66 65 64 62 61 60 60 59 57 56 57 59 60 60 59 60
53 51 51 50 49 49 50 50 51 51 51 51 51 51 51 52 52 52 52 51 50 49 49 48 48 48 48 47 47 47 47 48 49 51 52 53 54 55 55 56 57 58 59 60 62 64 66 67 67 67 66 66 65 64 63 61 59 58 58 60 61 61 62
56 54 54 53 52 51 51 51 51 51 52 53 52 52 53 53 53 53 53 54 53 52 52 51 50 50 50 50 50 50 50 50 50 51 52 53 55 56 56 57 57 58 59 59 60 62 63 65 67 68 69 69 69 69 67 66 65 62 60 60 61 62 63
58 56 56 55 55 54 53 53 54 53 52 53 53 54 55 55 55 54 54 54 54 54 54 54 54 53 53 53 53 53 53 53 52 52 52 53 54 56 57 58 58 59 59 60 61 61 62 64 65 67 68 69 70 71 71 70 69 67 66 64 63 62 62
58 58 58 58 57 56 55 56 57 56 54 54 54 55 55 56 56 56 56 55 54 54 55 56 56 56 56 56 55 55 55 55 56 55 55 55 55 56 57 59 59 60 61 61 61 62 63 63 64 65 67 68 70 71 73 73 72 70 69 69 68 67 66
57 57 58 58 58 58 57 57 59 60 59 57 56 56 57 58 57 57 57 56 55 55 55 56 57 58 59 59 59 58 58 58 58 58 58 58 58 58 58 59 60 61 62 62 62 62 63 63 64 65 66 67 68 70 72 74 75 74 72 71 71 70 70
55 56 56 56 56 56 57 57 59 61 62 60 58 57 58 59 58 58 58 57 57 57 56 56 57 58 59 60 61 61 61 61 61 60 61 61 61 61 61 60 61 62 62 63 63 64 64 64 64 65 67 67 68 69 70 72 73 75 76 76 75 74 74
54 54 54 54 53 53 55 57 58 61 62 61 60 61 62 62 62 62 61 59 59 59 58 58 58 58 58 59 61 63 63 63 63 63 64 64 64 64 64 64 64 64 64 64 64 65 65 65 65 66 67 68 69 70 70 71 71 73 74 76 77 77 77
55 54 54 54 53 52 53 55 57 60 61 60 61 64 65 63 63 63 63 62 60 58 58 59 59 61 62 61 62 64 65 65 65 66 66 66 66 67 67 67 67 67 67 66 66 66 66 67 67 67 67 68 68 70 71 72 72 73 73 74 75 76 77
55 55 55 55 54 54 54 55 56 57 58 59 60 62 63 62 61 61 61 61 62 61 60 60 61 63 66 67 67 67 67 66 66 67 68 68 68 69 69 70 70 70 71 70 70 69 69 69 69 69 69 69 69 70 71 72 73 74 74 75 75 76 76
57 57 57 57 56 56 56 57 56 56 56 58 59 60 60 60 59 58 57 57 60 62 63 63 62 62 66 70 72 71 69 67 67 68 69 69 70 71 71 72 72 73 73 73 73 73 73 72 72 72 72 71 71 71 71 72 73 73 74 75 76 77 77
59 59 60 60 59 59 58 58 58 58 58 58 59 60 59 59 58 57 55 54 57 60 60 59 59 61 64 70 74 74 72 70 69 69 70 70 71 72 73 74 75 75 76 76 76 76 76 75 75 75 75 74 74 74 74 74 74 74 74 75 76 77 78
62 62 62 62 62 62 61 61 61 60 60 60 61 61 61 60 59 57 56 57 60 62 60 57 57 59 62 67 72 73 73 72 71 70 70 71 72 74 75 76 77 77 78 78 78 78 78 78 78 78 78 77 77 77 77 77 77 77 76 76 76 77 77
64 64 64 65 65 65 65 64 64 63 63 63 63 63 63 62 61 60 59 60 63 64 61 60 60 60 61 65 69 71 71 70 70 70 69 70 72 74 76 77 78 79 80 81 80 80 80 80 81 80 80 80 80 80 80 80 80 80 79 79 79 79 79
66 67 67 68 68 68 68 68 67 66 66 66 66 66 66 65 64 64 63 63 64 65 64 65 66 66 66 68 70 72 72 70 68 67 67 69 71 73 74 76 78 80 81 82 83 82 82 82 82 82 82 83 83 83 83 83 83 83 82 82 81 82 82
69 69 69 70 70 71 71 71 70 70 70 69 69 69 69 68 68 67 67 66 67 66 66 69 71 72 73 74 73 73 73 71 69 69 70 72 73 74 75 76 78 79 81 82 83 84 84 84 85 85 85 85 85 85 86 86 86 86 86 85 85 85 86
70 70 70 71 71 72 72 72 72 73 72 72 72 72 71 72 71 71 70 70 69 68 68 71 74 75 76 77 77 76 75 74 73 74 76 77 78 78 78 78 79 80 81 81 82 83 84 86 87 88 88 88 87 87 87 88 89 89 89 89 88 88 89
71 71 71 72 72 72 73 73 73 73 73 74 74 74 73 73 74 73 73 73 71 69 69 72 75 77 78 78 78 77 76 76 76 77 78 79 80 81 81 81 81 81 82 82 82 82 83 85 87 89 90 90 90 90 90 91 91 91 91 91 91 92 92
74 73 73 73 73 73 73 73 73 73 73 74 74 74 74 74 74 74 74 74 72 71 72 75 76 77 78 78 78 78 77 77 78 78 79 80 80 81 82 82 83 83 83 83 82 82 83 85 86 88 89 89 90 91 93 93 93 93 93 93 94 94 95
76 76 76 75 75 74 73 73 73 73 73 73 73 74 74 74 74 74 73 74 73 73 75 77 77 76 77 77 78 78 78 79 79 79 79 80 80 81 82 82 83 83 83 83 83 84 84 85 86 87 87 87 88 90 91 92 93 94 95 96 96 97 97
77 77 77 77 77 77 77 76 75 74 74 74 74 74 74 74 74 73 73 74 75 75 76 77 76 76 77 78 79 79 79 79 79 79 80 80 80 81 82 82 83 82 83 83 84 85 85 86 87 87 87 87 87 87 88 89 90 92 94 96 97 98 99
78 78 78 78 79 79 79 79 78 77 76 75 75 74 74 74 74 74 75 76 75 75 76 77 76 76 77 78 79 79 79 80 80 80 80 80 81 82 82 83 82 82 82 83 84 85 86 86 87 87 87 87 86 86 87 88 89 90 92 93 95 96 97
79 79 79 80 80 79 79 79 79 79 78 77 76 74 74 74 74 75 76 76 76 76 76 77 77 76 77 78 79 79 80 81 81 81 81 81 82 83 83 83 82 82 83 84 85 85 86 86 86 87 87 87 86 86 87 87 88 89 90 92 93 94 95
79 80 80 81 81 80 80 80 80 80 79 79 77 75 74 75 75 76 76 76 75 76 77 77 77 77 77 78 78 79 80 80 80 80 81 81 82 83 84 84 83 83 84 85 85 86 86 86 86 86 86 86 86 86 86 86 87 88 89 90 91 91 92
77 78 79 79 79 80 80 80 80 79 79 78 76 74 74 76 76 76 75 74 75 75 76 76 76 76 77 78 78 78 78 79 79 79 79 80 81 82 83 83 82 83 84 84 84 85 85 85 86 86 86 86 86 86 86 86 86 87 87 88 88 89 90
74 75 75 75 76 76 77 78 78 78 77 76 74 73 73 75 76 75 73 73 74 75 74 74 75 75 76 76 76 76 76 76 77 77 77 78 79 80 81 82 81 82 82 82 83 83 83 84 84 84 84 84 84 84 84 84 84 84 84 84 85 85 86

ECMWFFLT1_250_spd_030.txt.gz
Wind_Speed
39 38 38 39 40 41 42 42 42 40 39 39 37 36 34 33 32 32 32 32 32 32 32 32 33 33 34 35 37 38 39 41 42 44 45 47 47 47 48 44 40 42 43 40 40 40 39 40 42 42 40 39 38 37 37 36 36 34 33 34 36 39 43
37 36 37 39 41 43 44 44 43 41 40 39 38 37 36 34 33 33 32 32 32 32 33 32 32 32 33 34 35 35 36 37 38 40 41 43 44 47 48 45 42 44 45 44 42 41 40 40 43 45 42 41 40 38 38 37 36 34 34 35 36 37 40
39 36 36 38 41 43 44 43 42 41 40 40 39 37 36 35 35 34 34 33 33 33 33 33 33 33 33 33 33 34 34 35 36 37 38 40 42 45 47 46 45 45 46 45 44 43 42 42 43 46 44 42 41 40 39 38 36 36 35 35 36 38 40
42 38 37 39 42 44 45 43 40 39 39 39 39 38 37 37 36 35 35 34 34 34 34 34 33 33 33 33 33 33 33 34 34 35 36 38 40 42 44 46 47 48 47 46 44 43 43 43 43 45 45 44 43 42 41 40 38 38 38 37 37 39 41
43 41 40 40 42 44 44 42 39 37 36 37 38 39 39 38 38 37 36 36 35 35 35 35 35 34 34 33 33 33 33 33 33 34 35 36 38 39 42 45 48 50 50 47 46 44 44 44 45 45 46 46 44 43 43 41 41 41 40 40 40 41 41
45 43 41 42 43 45 45 43 40 37 36 36 37 39 40 40 39 39 38 38 37 36 36 37 37 36 35 35 35 35 34 34 33 34 34 35 36 38 40 43 47 51 52 51 49 48 46 45 46 46 46 46 46 45 44 43 43 44 43 43 44 44 44
51 47 45 45 46 47 46 46 44 41 39 38 37 38 39 40 41 40 40 40 39 38 38 37 38 38 38 37 36 36 36 36 35 34 34 35 36 37 39 41 44 49 53 53 52 51 50 48 47 47 46 46 46 47 47 46 46 46 46 47 47 46 46
53 50 47 48 49 48 46 46 46 44 43 42 41 39 39 40 41 41 41 41 41 41 40 39 39 39 39 39 38 38 38 37 37 36 36 35 35 37 38 39 42 46 52 54 54 54 53 52 51 50 48 47 46 46 47 49 49 49 48 49 49 48 47
51 50 49 50 51 49 45 43 43 44 44 44 43 42 41 41 41 41 42 42 42 42 42 42 42 41 41 40 40 40 40 39 39 39 38 37 37 37 38 39 41 43 47 51 54 55 55 55 54 53 51 50 49 47 46 47 50 52 51 51 51 50 49
49 50 52 54 55 52 47 44 43 44 45 45 44 44 44 44 43 42 42 42 43 43 43 44 44 44 43 43 42 42 42 42 41 41 40 40 39 39 38 39 41 42 44 47 50 53 55 56 55 55 53 52 52 51 49 46 47 51 53 54 54 53 52
50 52 55 59 60 56 51 48 46 45 46 46 46 45 45 46 45 45 43 43 43 43 44 45 46 46 46 46 46 45 45 45 44 43 43 42 42 41 41 40 41 42 43 45 47 49 52 54 56 56 55 54 53 53 53 51 48 49 51 53 54 55 55
52 54 56 59 62 60 56 54 52 49 49 49 49 49 48 47 47 47 46 45 44 44 44 45 46 48 49 49 49 49 48 48 47 46 46 45 44 44 43 43 43 43 43 44 45 47 49 51 54 56 56 56 55 55 55 55 53 51 50 51 52 54 54
55 56 57 59 61 61 60 59 58 55 54 53 54 53 52 50 49 48 48 48 47 46 45 45 46 48 49 51 51 52 51 51 50 50 49 48 48 47 46 45 44 44 44 44 45 46 47 49 51 53 55 56 57 57 56 57 57 56 53 52 52 53 53
56 56 57 59 61 62 61 60 60 59 58 57 57 55 53 52 51 50 49 50 50 49 49 48 48 49 49 51 52 53 53 53 53 53 52 51 51 50 49 48 47 46 46 46 46 46 47 48 49 50 52 54 56 57 57 57 59 59 57 56 54 54 54
58 59 59 61 64 64 64 64 63 62 61 60 59 58 55 53 53 52 51 50 51 52 52 52 52 51 51 51 52 53 53 54 55 55 55 54 54 53 52 52 51 50 49 48 48 48 48 49 50 51 51 53 54 55 57 57 58 59 60 59 58 57 57
57 59 60 62 65 65 65 64 64 64 64 62 61 61 61 59 58 58 56 54 53 53 54 54 54 55 54 54 53 53 53 54 54 55 56 56 57 56 56 55 54 54 53 52 51 51 51 51 52 53 53 53 54 55 56 57 58 58 59 60 60 60 59
52 57 60 62 63 63 60 58 61 65 65 63 62 63 64 64 64 64 63 60 58 57 56 57 57 58 58 58 57 56 55 54 54 54 56 57 58 58 58 58 58 57 56 56 56 55 54 54 53 54 55 55 55 56 56 56 57 58 58 59 60 61 62
47 51 55 57 58 59 59 58 61 63 63 61 60 61 63 63 64 65 66 65 64 63 63 63 63 62 61 61 60 59 58 57 56 56 56 57 58 58 59 60 60 60 60 59 59 59 58 58 57 57 56 57 57 57 58 58 58 59 59 59 60 61 62
51 51 52 51 53 55 58 60 58 56 59 60 57 57 57 57 58 60 63 66 67 66 66 66 65 64 63 63 63 62 60 59 59 59 58 58 58 58 59 61 62 62 62 62 62 62 62 61 61 61 60 60 59 59 59 60 60 60 61 61 61 61 61
57 57 56 54 53 52 52 53 54 56 61 63 60 58 58 58 60 62 64 65 65 64 64 63 63 62 62 62 63 63 63 62 61 61 61 61 61 60 60 61 62 62 63 63 64 64 64 64 64 64 64 63 63 62 62 62 62 62 62 63 63 63 63
54 56 58 59 59 57 53 53 57 61 64 65 65 64 65 65 65 64 63 63 61 61 60 59 59 59 59 60 61 62 63 63 64 64 64 64 64 64 63 62 62 62 63 64 64 65 65 66 66 66 67 67 66 66 66 66 65 65 65 65 65 65 66
52 52 56 60 62 63 62 62 63 65 67 66 66 66 65 65 63 61 60 60 59 59 58 58 58 57 57 58 58 59 60 62 64 65 65 66 66 67 67 66 64 64 65 65 65 65 65 66 67 67 68 68 69 69 69 69 69 68 68 68 67 67 68
58 58 59 61 62 64 64 65 65 66 67 66 65 64 63 63 61 60 59 59 58 58 58 58 58 57 57 57 57 57 58 59 61 62 63 64 66 68 69 69 68 68 68 68 67 67 67 67 67 68 68 69 69 70 71 72 72 72 71 71 71 71 71
63 63 63 63 64 64 64 64 64 65 65 64 64 63 63 63 62 61 60 59 59 59 58 58 58 59 59 59 58 58 58 59 59 60 60 61 63 65 67 69 69 70 70 70 70 69 68 69 69 70 70 70 70 71 72 72 73 74 74 75 75 75 75
62 63 64 64 64 64 64 64 64 64 64 64 63 63 63 63 62 62 61 60 60 59 59 59 59 60 61 61 61 60 60 60 60 60 60 60 61 63 64 66 67 69 71 72 72 71 71 72 72 72 72 72 72 72 72 73 74 74 75 76 78 78 78
63 63 64 65 65 64 64 64 64 64 63 63 63 62 62 62 62 62 62 61 61 61 61 61 61 62 63 63 63 62 62 63 63 63 63 63 63 63 64 65 66 67 69 70 71 71 72 73 74 75 75 75 75 75 75 75 75 75 75 77 78 80 80
63 63 64 65 65 65 65 64 63 63 62 62 62 62 62 62 62 63 63 63 63 63 64 64 64 65 65 64 64 64 64 65 66 66 67 67 66 66 66 67 67 68 68 68 69 70 70 72 73 74 75 75 76 77 78 78 77 76 77 78 78 80 81
63 64 64 64 65 65 65 64 63 62 62 62 62 62 63 63 64 64 64 65 65 66 67 68 68 68 67 67 67 67 67 68 68 69 69 70 70 70 70 70 70 70 70 70 71 71 70 71 72 72 72 73 75 77 78 78 77 77 78 80 81 81 82
64 64 64 63 64 64 64 64 63 63 63 63 63 63 64 64 65 65 66 66 67 68 69 69 70 70 70 70 70 70 71 71 71 71 71 72 72 73 73 73 72 72 72 74 74 74 73 72 72 72 72 73 73 74 75 76 76 77 78 80 81 82 83
65 65 64 64 63 64 64 64 65 65 65 64 64 64 64 65 65 66 67 68 68 69 70 71 71 72 72 72 72 73 73 74 74 74 74 75 75 75 75 76 75 75 75 76 77 77 77 76 75 75 75 75 74 74 75 75 76 77 78 79 80 81 82
64 64 64 65 65 66 66 67 67 66 66 65 65 65 66 66 67 68 69 69 70 70 71 72 73 73 73 74 74 74 75 75 76 76 76 77 77 77 77 78 78 78 78 78 79 79 80 80 79 79 78 77 77 77 78 78 79 79 80 80 81 81 81
64 65 66 67 68 68 68 68 68 68 67 67 67 67 68 68 69 70 71 71 71 72 72 72 73 74 74 75 75 76 76 76 77 77 77 78 78 79 79 80 80 80 80 80 81 81 81 82 82 82 81 81 81 81 82 81 81 81 81 82 82 82 82
66 67 68 69 70 70 70 70 70 70 70 70 70 70 70 71 71 72 72 73 73 73 73 73 74 74 74 75 75 76 77 77 78 78 78 78 79 80 80 81 81 82 82 82 82 82 82 82 82 83 83 84 84 85 85 85 85 84 84 83 83 82 83
69 70 71 72 72 71 72 72 73 73 74 73 73 73 72 73 74 74 74 74 74 74 74 74 74 74 74 74 75 75 76 77 77 78 79 79 79 80 81 81 82 82 83 83 82 82 82 83 83 83 84 85 86 87 87 88 88 88 87 86 86 85 85
72 73 74 74 74 73 73 74 75 76 76 76 75 75 75 75 76 76 76 75 75 75 74 74 74 74 73 73 73 74 74 75 76 77 78 79 79 80 81 81 82 82 83 83 83 83 83 83 84 84 85 85 86 87 87 88 89 89 89 89 88 88 88
75 75 76 76 76 75 75 75 76 77 77 77 77 76 77 77 77 77 77 77 76 75 75 74 73 73 72 72 72 72 72 73 74 75 76 77 78 79 80 80 81 81 82 82 83 83 84 84 85 85 85 86 86 86 87 87 87 88 88 88 88 88 88
77 76 76 76 76 76 76 76 77 77 77 77 78 78 79 78 78 78 78 77 76 75 74 73 72 71 71 70 69 69 70 70 70 71 72 73 75 76 78 79 80 80 81 82 82 83 83 83 84 84 85 85 86 86 86 86 86 86 86 86 87 87 87

ECMWFFLT1_250_spd_033.txt.gz
Wind_Speed
57 57 57 56 55 55 54 53 52 50 47 45 42 39 37 37 38 38 38 38 37 35 34 32 29 27 25 24 24 24 25 26 27 28 29 30 31 33 35 37 39 41 41 40 38 37 40 43 44 45 45 44 42 41 41 40 40 39 38 35 35 37 39
57 56 56 55 54 53 52 52 51 49 47 45 43 40 37 37 37 38 38 38 37 36 34 33 31 28 26 25 24 24 24 25 25 26 27 28 29 30 32 34 37 39 39 39 40 39 38 40 42 44 44 43 42 42 43 43 42 41 41 41 38 38 39
58 57 55 54 52 51 49 48 48 46 45 43 41 39 37 36 36 37 36 35 35 35 35 35 33 30 28 25 25 24 24 25 24 25 25 27 28 29 30 31 33 36 37 38 41 41 40 40 40 41 42 41 40 41 44 45 44 43 43 44 41 39 39
57 56 55 52 50 49 47 46 45 44 43 41 39 37 36 36 36 36 35 34 33 34 35 36 35 33 31 28 26 25 25 25 24 24 25 25 26 27 28 30 31 32 35 37 40 41 41 43 43 41 40 40 40 40 42 46 47 45 44 44 43 41 39
51 52 53 52 50 48 46 45 45 44 43 41 39 37 36 37 37 37 37 35 33 34 34 35 36 35 33 31 29 27 26 25 25 25 25 25 25 26 27 28 29 31 33 36 39 41 42 44 46 44 41 41 41 41 43 45 47 46 46 45 44 43 40
46 47 47 48 49 49 47 46 45 44 43 42 40 38 37 38 38 37 38 37 35 34 34 35 36 36 36 34 32 30 29 28 27 27 27 27 27 27 27 28 28 29 32 34 37 40 43 45 45 45 44 42 41 42 44 46 47 47 47 47 46 44 43
45 46 45 44 44 45 46 46 47 46 44 43 42 41 40 39 38 37 37 36 36 36 35 35 35 36 37 36 35 33 32 30 30 29 29 29 29 29 28 28 28 29 30 32 35 38 41 45 47 45 45 45 44 43 44 46 47 48 48 48 47 46 45
42 43 44 44 42 42 42 44 47 49 48 47 45 44 43 41 40 39 38 37 37 37 36 36 36 36 36 37 37 37 35 34 32 32 32 31 31 31 30 30 30 30 30 31 33 36 39 44 48 48 47 47 46 45 45 46 46 47 48 49 48 48 47
44 46 46 45 43 42 41 42 44 48 50 51 51 49 48 45 44 43 42 40 38 36 36 36 37 37 37 37 38 38 38 38 36 35 34 34 34 34 33 32 32 32 32 31 32 34 37 40 45 49 50 49 49 49 48 48 47 46 47 48 49 49 48
53 54 54 51 48 45 43 42 43 46 48 50 51 52 52 50 48 46 45 43 40 38 37 37 38 38 38 38 38 38 39 40 40 39 37 37 37 37 36 36 35 35 34 34 33 33 35 38 41 45 49 51 52 52 51 51 51 49 46 47 48 50 50
56 57 58 59 58 53 48 44 42 43 46 47 48 50 52 52 51 50 50 48 45 43 42 41 41 41 40 40 39 39 39 40 41 41 41 40 40 40 40 39 39 38 37 36 36 35 35 36 38 41 45 48 50 52 53 53 53 53 50 48 48 49 51
53 53 55 59 62 59 54 48 44 44 45 47 48 49 51 53 54 54 54 54 52 50 49 48 47 46 45 43 42 41 41 41 41 42 43 44 43 43 43 43 43 42 41 40 39 38 37 37 38 39 42 44 46 48 51 52 54 55 54 52 50 50 50
48 47 49 54 58 58 55 53 51 49 49 50 50 51 53 54 55 56 56 56 56 55 54 53 52 51 49 47 45 44 43 43 43 43 44 45 46 46 46 46 46 45 45 44 43 42 41 40 40 40 41 43 44 46 48 50 52 54 55 55 54 53 52
51 49 50 53 56 57 57 57 57 55 53 53 53 54 54 55 56 56 57 57 56 56 56 56 56 54 53 51 48 46 45 44 44 45 45 45 46 48 48 48 48 48 47 47 47 46 46 45 43 43 42 43 44 46 47 48 50 52 54 55 56 56 55
57 57 56 57 58 59 60 61 60 59 57 56 56 57 58 58 58 58 58 58 59 59 58 58 57 57 56 55 53 50 48 47 46 46 46 47 47 48 49 50 50 50 50 50 50 50 50 49 47 46 45 45 45 46 47 48 50 51 52 54 56 57 57
61 60 60 60 60 61 62 63 62 61 61 61 61 61 60 60 60 61 61 61 61 61 61 60 59 59 59 58 57 56 54 52 50 48 47 48 49 49 49 50 50 51 52 52 52 53 53 52 52 50 49 48 47 47 48 48 50 51 52 53 55 56 57
63 63 63 63 63 62 62 63 64 64 64 65 64 62 60 59 59 60 61 62 62 61 61 61 60 59 59 60 60 59 59 58 56 54 52 50 50 50 51 51 51 52 52 53 53 54 54 55 55 54 53 52 51 50 50 50 50 51 52 53 54 55 56
60 62 63 63 62 60 60 62 64 63 62 64 64 61 59 58 58 60 62 61 60 60 59 57 56 56 56 58 59 60 60 59 59 58 57 56 56 55 55 55 55 55 55 55 54 55 55 56 56 56 56 56 55 54 54 53 53 53 53 54 54 55 56
56 58 59 60 59 57 57 59 60 60 59 59 60 58 56 55 51 50 54 56 54 53 51 51 51 51 52 54 55 56 56 56 56 57 58 60 60 60 60 60 59 58 58 58 57 56 56 56 56 57 58 58 58 58 57 57 56 56 56 55 56 56 57
53 53 53 55 55 53 53 54 55 56 57 57 56 55 54 54 48 42 44 49 51 50 46 47 49 50 51 53 54 56 57 58 59 59 59 60 60 60 61 61 61 60 60 60 60 59 58 58 57 58 59 59 60 60 60 60 60 59 59 59 58 58 58
53 51 49 51 52 51 51 52 52 53 55 55 56 54 52 53 53 49 45 46 54 58 54 52 53 53 54 56 58 60 61 62 62 61 60 59 58 59 59 60 60 59 60 61 62 62 61 60 60 60 60 60 61 61 62 62 62 62 62 62 62 62 61
54 54 52 51 51 53 55 56 55 55 56 56 56 55 53 51 52 53 49 49 58 66 64 60 59 59 59 59 60 60 60 60 60 59 58 58 58 58 59 59 59 59 59 61 62 63 63 63 63 63 62 62 62 63 63 63 64 64 65 65 65 65 65
57 56 54 51 50 52 57 60 60 60 60 59 57 57 56 54 53 52 52 56 64 68 67 66 66 65 64 62 61 60 59 59 59 58 58 58 58 59 59 59 59 59 59 60 62 63 64 65 65 66 66 66 65 65 65 65 65 66 66 67 68 68 68
58 58 57 54 52 55 60 63 64 63 63 62 61 59 58 56 56 56 56 60 64 66 67 70 72 71 68 65 64 62 61 60 59 59 58 58 59 60 60 59 59 59 60 61 61 63 64 65 66 67 68 69 69 68 67 67 67 67 67 68 69 70 70
59 59 59 58 57 60 65 66 66 66 65 65 64 61 59 58 59 61 62 65 67 69 72 74 74 73 70 68 66 65 63 63 62 61 60 59 59 60 61 60 59 59 60 61 62 62 63 64 65 67 69 71 72 71 71 70 69 69 69 70 70 71 71
61 61 61 62 62 63 66 68 69 69 69 69 68 66 65 65 66 68 70 72 74 75 76 76 75 73 71 69 68 66 65 64 63 63 62 62 61 61 62 62 62 61 61 61 62 62 63 64 65 66 67 70 71 71 72 73 73 72 73 73 73 73 73
64 63 64 64 65 66 68 69 70 71 73 74 75 75 75 75 76 76 77 77 78 78 77 76 74 73 71 69 68 66 66 65 65 65 64 64 64 64 64 64 64 64 64 63 63 63 64 64 66 67 68 69 69 70 71 73 74 74 75 75 76 76 76
66 66 67 67 68 69 69 70 71 72 73 75 77 78 78 78 78 78 78 77 77 77 76 75 74 72 71 69 67 66 66 66 66 66 66 66 67 67 67 68 68 68 68 67 67 66 66 66 66 67 68 70 70 70 70 72 73 74 74 75 77 78 79
67 68 68 69 69 69 70 71 72 73 73 74 75 76 76 76 76 76 75 75 75 75 74 73 73 72 70 69 68 67 67 67 67 67 67 68 68 69 69 70 71 71 71 71 71 70 70 69 69 69 70 71 71 71 71 72 73 74 74 75 77 78 79
66 67 67 68 68 68 68 70 71 72 72 73 73 73 73 74 74 75 74 74 73 73 73 73 72 72 71 70 69 68 68 67 67 68 68 69 70 70 71 72 73 73 74 75 75 74 74 73 73 73 73 74 73 73 73 74 75 75 76 77 78 78 79
64 64 64 65 65 66 67 68 69 70 70 71 71 71 71 72 72 72 73 72 72 73 73 72 72 72 71 71 70 70 69 69 69 69 70 71 72 73 73 74 75 75 76 77 77 77 77 77 76 76 76 77 77 77 77 77 78 78 79 79 79 79 80
63 63 63 63 64 66 67 68 69 69 70 70 70 70 70 70 69 69 70 70 71 71 72 72 72 72 73 72 72 71 70 71 71 72 73 74 75 75 76 76 77 78 78 79 79 79 79 79 79 79 79 79 79 80 80 81 81 81 81 82 82 82 82
62 63 63 63 64 66 68 69 70 70 70 70 70 69 69 68 67 67 68 69 70 71 72 73 74 74 74 74 73 73 73 73 73 74 75 76 77 77 78 78 79 80 80 80 81 81 81 81 82 82 82 82 82 82 82 83 83 83 83 84 84 84 84
64 63 63 63 65 67 68 69 69 69 69 68 68 67 67 67 67 68 69 70 71 72 73 75 75 75 76 75 76 76 76 76 76 76 77 77 78 78 79 80 80 81 81 82 82 82 82 83 83 83 83 84 84 84 84 84 84 84 84 84 85 85 85
66 66 65 65 67 68 69 69 69 68 67 67 67 67 67 68 69 70 72 72 73 74 75 76 77 77 77 77 78 78 78 78 78 78 78 78 78 79 79 80 80 81 81 81 82 82 82 83 83 84 84 84 84 84 84 85 85 85 85 85 85 85 85
69 68 68 68 68 70 70 70 70 69 68 67 67 68 69 70 71 73 74 75 75 76 77 78 78 79 79 79 79 79 79 78 78 78 78 78 78 78 79 79 79 79 80 80 80 80 80 81 82 82 83 83 83 83 84 85 85 85 85 85 84 84 84
72 71 71 71 70 71 72 72 72 71 70 69 70 71 72 73 74 76 77 78 78 79 80 80 80 80 80 80 80 79 79 79 78 78 78 78 78 77 77 77 77 77 77 77 77 77 77 77 78 79 80 81 82 83 83 83 83 83 83 83 83 83 83

ECMWFFLT1_250_spd_036.txt.gz
Wind_Speed
45 46 47 48 49 50 50 51 51 50 50 50 49 49 49 47 46 44 42 39 37 33 30 27 25 24 25 24 23 22 22 21 21 21 23 26 29 31 33 34 34 33 35 37 38 38 37 35 33 32 33 36 37 35 33 34 34 34 35 36 37 37 37
49 50 50 50 50 50 51 51 50 49 49 48 47 47 46 45 44 41 40 38 35 32 29 26 24 24 24 23 22 22 22 22 22 22 22 24 25 26 27 28 28 28 30 33 35 37 39 40 39 38 36 38 41 39 36 36 36 37 38 38 38 38 37
53 53 52 52 51 51 52 51 51 50 49 48 47 45 44 43 42 40 39 37 34 31 28 26 25 26 25 25 24 23 23 23 23 23 23 23 24 25 25 25 25 25 26 28 29 31 33 36 39 40 39 38 40 40 39 38 38 39 41 41 40 40 39
53 52 51 50 49 49 48 48 47 47 46 45 44 43 42 41 40 39 37 36 34 31 28 27 26 27 27 27 26 25 23 23 24 24 24 24 24 24 25 25 24 23 24 24 25 27 29 31 34 38 40 39 39 40 40 40 39 39 41 43 43 42 41
49 47 45 43 42 40 40 40 40 40 40 40 40 40 40 40 39 38 36 35 33 32 29 28 27 27 28 28 29 28 26 25 24 25 25 25 25 25 25 26 25 24 23 23 24 25 26 29 31 34 40 41 40 40 40 40 39 39 40 42 43 44 44
44 42 40 39 38 38 37 37 37 37 37 37 37 37 37 38 39 39 37 35 34 33 32 30 28 27 28 29 29 29 28 27 26 26 27 27 27 26 26 26 26 25 24 24 24 25 25 27 29 32 37 42 43 43 42 40 38 38 39 40 41 43 44
44 43 43 42 41 41 39 39 39 38 36 35 35 36 35 36 37 38 39 38 36 36 34 33 31 30 30 31 31 31 30 29 28 28 28 28 28 29 28 27 27 27 26 25 25 25 26 26 28 30 34 40 44 44 44 43 39 38 40 42 42 42 43
47 47 47 46 45 45 43 41 41 39 36 35 35 35 36 36 36 37 38 39 40 40 40 38 37 35 35 35 34 33 32 30 29 29 29 30 30 30 31 30 29 28 27 27 26 26 26 26 27 29 31 36 42 45 46 46 44 42 41 43 44 43 42
49 49 49 49 48 48 46 44 43 41 39 40 40 38 37 37 37 38 39 40 41 42 43 43 42 41 40 39 37 36 34 32 30 30 31 32 32 33 33 32 32 31 30 29 28 27 26 26 27 28 30 32 37 43 46 48 48 47 45 44 44 45 44
49 49 50 50 50 50 49 46 44 44 45 46 46 44 43 42 41 41 41 40 41 41 42 43 44 44 43 42 41 39 38 37 36 35 34 33 34 35 35 34 34 34 33 32 31 30 29 28 28 28 30 32 34 37 42 46 48 49 49 47 46 45 45
51 51 53 53 52 52 54 51 47 47 48 49 50 49 49 48 46 44 43 42 41 41 42 42 43 44 45 45 44 43 43 43 42 40 38 37 36 36 37 37 37 36 36 35 35 33 32 31 31 30 31 32 33 35 38 42 45 48 50 51 51 49 47
54 54 56 57 56 56 58 56 52 51 51 52 52 52 52 52 50 47 44 42 41 42 43 43 44 45 46 47 47 46 46 46 45 44 42 40 39 38 38 38 39 38 38 38 38 38 37 35 34 34 33 34 34 35 36 39 42 45 47 50 53 54 52
56 57 57 58 59 60 61 59 56 54 53 53 54 54 55 55 54 51 48 46 45 45 46 46 46 46 47 48 48 49 49 48 47 46 45 43 42 41 40 39 39 39 40 40 40 40 40 40 39 38 37 37 37 36 37 38 39 42 45 47 50 53 55
56 57 57 56 55 57 58 58 56 54 53 53 54 54 55 57 57 56 54 52 51 50 49 49 48 48 48 48 49 50 50 50 50 49 48 47 45 44 43 41 40 40 40 40 41 42 42 42 42 42 42 41 40 40 39 39 39 41 43 45 47 49 52
56 57 56 54 52 52 53 53 53 52 53 54 54 55 56 57 59 59 58 57 56 55 53 52 52 52 51 51 51 52 52 53 53 52 52 50 49 48 46 45 44 43 42 41 42 43 43 43 44 44 45 45 45 44 43 42 42 42 42 44 45 47 49
61 61 59 57 55 54 54 54 54 54 55 56 57 57 57 58 59 60 60 59 59 59 58 58 57 57 57 56 56 55 55 55 55 55 55 54 52 51 50 48 48 47 47 45 44 44 44 44 45 45 46 47 47 47 47 46 46 45 45 45 45 46 48
65 65 64 62 61 60 59 59 58 58 59 60 60 60 59 59 59 60 61 60 60 61 61 62 62 62 61 60 59 58 56 55 55 55 56 55 53 52 51 51 51 51 51 50 50 48 47 46 46 46 46 47 48 49 49 50 49 49 49 48 48 48 48
63 63 64 64 64 63 63 63 63 63 64 65 65 64 63 61 61 61 60 60 61 62 63 64 64 63 63 62 61 60 57 56 55 54 54 54 53 50 49 49 50 51 52 52 52 51 50 50 49 49 49 49 49 50 51 52 52 52 52 52 52 51 51
60 61 61 61 62 62 62 62 62 63 64 65 66 66 64 63 62 62 61 60 60 61 62 63 63 63 63 62 62 60 56 53 52 49 48 49 50 48 47 46 47 48 49 50 49 49 50 51 52 53 53 53 53 53 53 54 54 55 55 55 55 55 54
59 59 59 59 59 60 59 59 60 60 59 60 61 60 59 59 60 60 60 60 60 60 60 61 62 62 62 62 61 56 48 44 44 42 41 43 45 46 46 47 48 48 49 50 51 51 51 51 52 53 54 56 56 56 56 56 57 57 57 57 57 57 57
57 57 57 58 58 58 57 57 57 57 56 55 53 52 52 53 54 54 55 57 59 60 60 59 59 60 59 60 62 57 47 42 42 42 43 44 46 47 48 49 50 51 50 51 51 51 51 51 51 51 52 54 55 57 58 58 59 60 60 59 59 59 59
56 55 56 56 56 56 56 55 53 53 53 53 51 48 49 51 52 53 54 54 56 59 59 57 57 58 57 58 61 62 55 48 44 45 46 47 48 49 49 50 51 51 50 50 50 50 50 51 51 51 52 52 53 54 56 57 59 60 61 61 62 62 62
57 56 56 56 55 55 56 56 55 54 54 55 52 50 52 54 55 56 57 56 58 60 61 59 56 57 58 58 60 63 62 56 51 49 49 49 50 50 51 51 51 50 49 50 51 52 52 52 52 53 53 53 54 54 55 56 57 59 60 62 63 64 64
58 58 59 58 58 58 58 59 59 59 59 58 56 55 56 57 58 59 60 60 62 64 64 62 60 58 59 61 62 65 65 62 59 57 54 53 52 53 53 54 53 52 51 51 52 53 53 54 54 54 55 55 55 55 56 56 57 58 59 61 63 64 65
60 60 61 61 61 62 63 63 62 62 62 61 60 59 59 59 60 61 62 64 66 67 67 66 65 63 63 65 67 68 67 65 64 63 60 59 58 58 58 58 57 56 54 53 53 53 53 54 55 55 57 58 58 58 58 58 58 59 60 61 63 65 66
62 62 62 63 63 64 64 64 64 64 64 63 62 61 61 61 61 62 64 67 68 69 69 68 67 66 67 68 70 70 70 68 67 67 66 65 64 64 63 61 61 60 59 57 56 55 54 54 54 55 56 58 59 60 60 60 60 61 62 62 64 65 66
64 64 64 64 65 65 65 65 65 65 66 65 64 64 63 64 64 65 66 67 68 70 70 69 68 68 69 71 72 73 72 72 71 71 72 72 71 69 68 66 64 63 62 61 60 58 57 56 55 56 57 58 59 60 61 62 63 64 65 66 66 66 66
67 67 66 66 67 67 67 67 67 67 68 68 68 67 68 68 68 69 69 69 70 71 71 72 72 72 73 74 75 76 76 76 76 77 77 77 76 74 72 70 68 66 65 64 63 61 60 60 59 59 59 60 61 61 62 63 64 66 68 69 68 68 69
67 68 69 69 69 69 69 69 69 69 68 69 69 70 70 71 70 71 71 71 72 73 73 74 74 74 75 75 76 78 79 79 80 79 79 78 76 75 73 72 70 69 68 67 66 64 64 64 63 63 63 63 63 63 64 65 66 69 71 71 71 71 72
66 68 69 70 70 70 70 69 70 70 70 70 71 72 72 72 72 72 72 73 74 75 75 75 75 75 75 75 76 77 78 78 78 78 77 75 74 73 73 71 71 70 69 68 68 67 67 67 67 67 67 66 66 65 66 67 68 70 71 73 73 74 75
64 66 67 68 69 68 68 69 70 70 71 72 73 73 73 73 73 73 74 75 76 77 77 77 76 76 75 75 75 75 75 75 75 75 75 74 73 72 71 71 70 70 70 70 70 70 70 70 70 70 70 70 69 69 70 70 71 72 73 74 75 76 77
61 63 63 64 65 65 66 67 69 70 71 72 73 74 74 74 74 74 75 76 77 77 77 77 76 76 75 74 74 73 73 73 73 74 74 73 72 71 70 70 70 71 71 71 72 72 73 73 73 73 73 74 74 74 74 75 75 75 76 76 76 77 77
60 61 61 61 61 62 64 65 66 67 68 70 71 72 72 72 72 73 73 74 75 75 75 74 73 73 72 72 72 71 71 71 71 72 72 71 71 70 70 70 71 72 72 73 74 75 75 76 76 76 77 77 77 78 78 78 79 79 79 79 79 79 79
63 62 61 61 61 62 63 64 64 65 66 67 68 68 69 69 69 70 70 71 72 72 72 71 71 71 71 71 71 70 70 70 69 69 69 69 69 69 70 71 72 73 74 76 77 77 78 78 79 79 79 80 80 80 81 81 81 82 82 81 81 81 80
67 66 66 65 63 63 63 64 64 65 65 65 66 66 66 67 67 68 69 69 70 71 71 71 71 71 71 71 70 70 69 68 68 68 68 68 68 69 70 71 73 75 76 78 78 79 80 80 81 81 81 82 82 83 83 83 83 83 83 83 82 82 81
73 72 71 70 68 67 66 66 66 67 67 67 67 67 67 67 67 68 69 69 70 70 71 71 72 72 72 71 70 70 69 68 68 68 68 69 70 71 72 73 75 77 78 79 80 81 82 82 83 83 83 83 83 84 84 84 83 83 82 81 81 81 80
78 77 76 75 73 72 71 70 69 69 69 69 69 69 69 69 69 69 70 71 71 72 72 73 73 73 73 72 72 71 70 70 70 70 71 72 72 73 74 75 77 79 80 81 82 83 83 84 84 84 84 84 84 84 83 82 81 80 79 78 78 78 77